Regional Weather Roundup
Issued by NWS

Home | Current Version | Previous Version | Graphics & Text | Print | Product List | Glossary Off
Versions: 1 2 3 4 5 6 7 8 9 10 11 12 13 14 15 16 17 18 19 20 21 22 23 24 25 26 27 28 29 30 31 32 33 34 35 36 37 38 39 40 41 42 43 44 45 46 47 48 49 50

000
ASUS43 KMKX 010011
RWRWI

WISCONSIN REGIONAL WEATHER ROUNDUP
NATIONAL WEATHER SERVICE MILWAUKEE/SULLIVAN WI
700 PM CDT FRI SEP 30 2016

NOTE: "FAIR" INDICATES FEW OR NO CLOUDS BELOW 12,000 FEET WITH NO
SIGNIFICANT WEATHER AND/OR OBSTRUCTIONS TO VISIBILITY.

WIZ001-002-006>008-014>016-023>028-010100-
NORTHWEST WISCONSIN

CITY           SKY/WX    TMP DP  RH WIND       PRES   REMARKS
SUPERIOR ARPT  CLOUDY    54  52  94 NE12G17   30.32F
6HR MIN TEMP:  54; 6HR MAX TEMP:  56;

ASHLAND        CLOUDY    53  52  96 NE13      30.32F
6HR MIN TEMP:  53; 6HR MAX TEMP:  59;

HAYWARD        MOCLDY    56  51  84 NE9       30.29S
6HR MIN TEMP:  55; 6HR MAX TEMP:  66;

SIREN          CLEAR     61  50  65 NE8       30.26S
6HR MIN TEMP:  61; 6HR MAX TEMP:  69;

CUMBERLAND     CLEAR     61  50  67 NE9       30.25S
RICE LAKE      PTCLDY    63  52  68 N9        30.25S
6HR MIN TEMP:  63; 6HR MAX TEMP:  73;

CHETEK         NOT AVBL
LADYSMITH      CLEAR     63  51  65 NE5       30.26S
6HR MIN TEMP:  63; 6HR MAX TEMP:  72;

EAU CLAIRE     CLOUDY    65  51  60 NE6       30.21R
6HR MIN TEMP:  65; 6HR MAX TEMP:  74;

MENOMONIE      CLOUDY    69  48  47 NE3       30.21F HAZE
6HR MIN TEMP:  69; 6HR MAX TEMP:  74;

NEW RICHMOND   CLEAR     63  50  63 NE5       30.23S
6HR MIN TEMP:  63; 6HR MAX TEMP:  72;

OSCEOLA        CLEAR     64  51  63 NE5       30.25S
6HR MIN TEMP:  64; 6HR MAX TEMP:  72;

$$

WIZ003>005-009-010-017-018-010100-
NORTH CENTRAL WISCONSIN

CITY           SKY/WX    TMP DP  RH WIND       PRES   REMARKS
MANITOWISH WTR NOT AVBL
ARBOR VITAE    PTCLDY    62  51  67 N6        30.27F
6HR MIN TEMP:  62; 6HR MAX TEMP:  72;

WOODRUFF       PTCLDY    62  51  67 N6        30.27F
6HR MIN TEMP:  62; 6HR MAX TEMP:  72;

RHINELANDER    CLOUDY    63  50  62 NE5       30.27S
6HR MIN TEMP:  63; 6HR MAX TEMP:  70;

EAGLE RIVER    CLOUDY    62  45  53 CALM      30.27F
6HR MIN TEMP:  62; 6HR MAX TEMP:  68;

LAND O LAKES   CLEAR     59  53  78 NE6       30.31S
6HR MIN TEMP:  59; 6HR MAX TEMP:  69;

PHILLIPS       MOCLDY    63  49  61 NE7       30.25F
6HR MIN TEMP:  63; 6HR MAX TEMP:  69;

TOMAHAWK       CLOUDY    62  49  63 E3        30.26S
6HR MIN TEMP:  62; 6HR MAX TEMP:  69;

MEDFORD        PTCLDY    60  51  71 NE5       30.23S
6HR MIN TEMP:  60; 6HR MAX TEMP:  70;

MERRILL        CLOUDY    64  53  66 E7        30.24F
6HR MIN TEMP:  64; 6HR MAX TEMP:  71;

$$

WIZ029-030-035-036-043>047-010100-
CENTRAL WISCONSIN

CITY           SKY/WX    TMP DP  RH WIND       PRES   REMARKS
WAUSAU         CLOUDY    63  51  65 NE5       30.21F
6HR MIN TEMP:  63; 6HR MAX TEMP:  70;

MOSINEE        NOT AVBL
MARSHFIELD     CLOUDY    64  54  69 E5        30.21S
6HR MIN TEMP:  64; 6HR MAX TEMP:  71;

STEVENS POINT  CLOUDY    59  52  76 NE6       30.21F
6HR MIN TEMP:  59; 6HR MAX TEMP:  64;

WAUPACA        CLOUDY    62  57  84 CALM      30.20F
6HR MIN TEMP:  61; 6HR MAX TEMP:  64;

WAUTOMA        LGT RAIN  59  57  93 NE7       30.19F
6HR MIN TEMP:  59; 6HR MAX TEMP:  60; 6HR PCP: TRACE;

WISC RAPIDS    CLOUDY    62  54  74 NE6       30.22F
6HR MIN TEMP:  62; 6HR MAX TEMP:  66;

CAMP DOUGLAS   MOCLDY    60  56  85 E6        30.20F
6HR MIN TEMP:  60; 6HR MAX TEMP:  62;

$$

WIZ011>013-019>022-031-037>040-048>050-010100-
NORTHEAST WISCONSIN

CITY           SKY/WX    TMP DP  RH WIND       PRES   REMARKS
ANTIGO         CLOUDY    60  53  78 CALM      30.24F
6HR MIN TEMP:  60; 6HR MAX TEMP:  68;

SHAWANO        CLOUDY    64  55  72 NE7       30.21F
6HR MIN TEMP:  64; 6HR MAX TEMP:  67;

OCONTO         NOT AVBL
STURGEON BAY   CLOUDY    62  56  80 NE9       30.21F
6HR MIN TEMP:  62; 6HR MAX TEMP:  63; 6HR PCP: TRACE;

GREEN BAY      CLOUDY    63  58  83 NE16G22   30.19F
6HR MIN TEMP:  62; 6HR MAX TEMP:  63; 6HR PCP: TRACE;

MANITOWOC      CLOUDY    62  59  90 MISG      30.18S
6HR MIN TEMP:  61; 6HR MAX TEMP:  63;

APPLETON       CLOUDY    61  57  88 NE10      30.17F
CLINTONVILLE   CLOUDY    61  50  67 NE10      30.20F
OSHKOSH        CLOUDY    61  57  87 NE13      30.17S
6HR MIN TEMP:  60; 6HR MAX TEMP:  63; 6HR PCP:  0.01;

$$

WIZ032>034-041-042-053>061-010100-
SOUTHWEST WISCONSIN

CITY           SKY/WX    TMP DP  RH WIND       PRES   REMARKS
LA CROSSE      CLOUDY    65  57  75 CALM      30.20S
6HR MIN TEMP:  65; 6HR MAX TEMP:  70;

SPARTA         CLOUDY    61  57  86 NE3       30.21F
6HR MIN TEMP:  61; 6HR MAX TEMP:  65;

VIROQUA        CLOUDY    58  58 100 E3        30.20F
6HR MIN TEMP:  58; 6HR MAX TEMP:  61;

BOSCOBEL       CLOUDY    62  58  86 VRB3      30.18S
6HR MIN TEMP:  62; 6HR MAX TEMP:  64; 6HR PCP:  0.01;

PRAIRIE DU CHI CLOUDY    62  56  80 N5        30.17F
6HR MIN TEMP:  61; 6HR MAX TEMP:  63;

PLATTEVILLE    CLOUDY    59  59 100 N7        30.17S
6HR MIN TEMP:  59; 6HR MAX TEMP:  63;

$$

WIZ056-057-062-063-064-067-068-010100-
SOUTH CENTRAL WISCONSIN

CITY           SKY/WX    TMP DP  RH WIND       PRES   REMARKS
REEDSBURG      NOT AVBL
BARABOO/DELLS  CLOUDY    58  57  95 NE8       30.17F FOG
6HR MIN TEMP:  58; 6HR MAX TEMP:  60;

LONE ROCK      CLOUDY    60  58  92 N7        30.18S FOG
6HR MIN TEMP:  60; 6HR MAX TEMP:  64; 6HR PCP: TRACE;

MINERAL POINT  CLOUDY    61  59  94 N7        30.16F
MADISON        CLOUDY    60  57  89 NE8       30.15F
6HR MIN TEMP:  60; 6HR MAX TEMP:  64; 6HR PCP: TRACE;

MIDDLETON      CLOUDY    61  61 100 NE8       30.16F
6HR MIN TEMP:  61; 6HR MAX TEMP:  63;

WATERTOWN      CLOUDY    59  59 100 NE7       30.15R
6HR MIN TEMP:  59; 6HR MAX TEMP:  61;

MONROE         CLOUDY    59  57  94 N10       30.13F FOG
JANESVILLE     CLOUDY    63  59  88 NE13G18   30.12F
$$

WIZ051-052-058>065-066-070>072-010100-
SOUTHEAST WISCONSIN

CITY           SKY/WX    TMP DP  RH WIND       PRES   REMARKS
MILWAUKEE      CLOUDY    61  57  87 NE12      30.13S
6HR MIN TEMP:  60; 6HR MAX TEMP:  64; 6HR PCP: TRACE;

WAUKESHA       CLOUDY    57  55  94 NE8       30.15F
MILWAUKEE/TIMM MOCLDY    61  55  82 NE9       30.14S
RACINE         CLOUDY    63  58  83 NE14      30.13S
6HR MIN TEMP:  62; 6HR MAX TEMP:  65; 6HR PCP: TRACE;

BURLINGTON     CLOUDY    58  57  96 NE7       30.12S
6HR MIN TEMP:  58; 6HR MAX TEMP:  62;

KENOSHA        CLOUDY    62  59  90 NE13      30.11S
6HR MIN TEMP:  62; 6HR MAX TEMP:  64;

FOND DU LAC    LGT RAIN  61  58  90 NE12      30.17F
6HR MIN TEMP:  61; 6HR MAX TEMP:  64; 6HR PCP:  0.01;

SHEBOYGAN      LGT RAIN  61  59  93 NE16      30.16S
6HR MIN TEMP:  61; 6HR MAX TEMP:  62; 6HR PCP:  0.02;

WEST BEND      CLOUDY    68  68 100 NE9       30.15S
JUNEAU         CLOUDY    60  56  88 NE7       30.17R
6HR MIN TEMP:  60; 6HR MAX TEMP:  61;

$$

LSZ147-162-010100-
LAKE SUPERIOR

STATION/POSITION TIME  TEMP    WIND        PRES    WAVE
                       AIR SEA DIR/SP/G            HT/PER
                 (UTC) (F)     (DEG/KT/KT) (MB)    (FT/S)
W MID LAKE BUOY  2350   55 56   60/ 12/ 14 1026.5F   3/ 5
DEVILS ISLAND    2300   52      50/ 13/ 14 1027.8F
SAXON HARBOR     2340   55      30/ 11/ 14 1026.4S
$$

LMZ867-665-643>646-010100-
LAKE MICHIGAN

STATION/POSITION TIME  TEMP    WIND        PRES    WAVE
                       AIR SEA DIR/SP/G            HT/PER
                 (UTC) (F)     (DEG/KT/KT) (MB)    (FT/S)
CHAMBERS ISLAND  2300   63      40/ 12/ 18 1023.4S
S GREEN BAY BUOY 2300   63 62   50/ 16/ 19 1022.4F
N MID LAKE BUOY  2350   64 65   70/ 23/ 27 1022.7F   5/ 5
NORTHPORT PIER   C1F1C2F2C3F3C4F4C5F5C6F6C7F7C8M1C9M2Ca!



USA.gov is the U.S. government's official web portal to all federal, state and local government web resources and services.